Weather History for KFAF - November, 2012

Change the Weather History Date:

Sunday, November 4, 2012

  Actual Average Record
Temperature  
Mean Temperature 44 °F -  
Max Temperature 50 °F 63 °F 77 °F (2003)
Min Temperature 38 °F 45 °F 33 °F (1996)
Degree Days  
Heating Degree Days 20    
Moisture  
Dew Point 35 °F    
Average Humidity 67    
Maximum Humidity 93    
Minimum Humidity 54    
Precipitation  
Precipitation 0.00 in - - ()
Sea Level Pressure  
Sea Level Pressure 30.06 in    
Wind  
Wind Speed 3 mph (North)    
Max Wind Speed 7 mph    
Max Gust Speed -    
Visibility 10 miles    
Events Rain    
Averages and records for this station are not official NWS values.
T = Trace of Precipitation, MM = Missing Value Source: NWS Daily Summary

Daily Weather History Graph

Daily Weather History Graph

Search for Another Location

Airport or City:

Trip Planner

Search our weather history database for the weather conditions in past years. The results will help you decide how hot, cold, wet, or windy it might be!

Date:

Astronomy

Nov. 04, 2012 Rise Set
Actual Time 6:34 AM EST 5:05 PM EST
Civil Twilight 6:07 AM EST 5:32 PM EST
Nautical Twilight 5:36 AM EST 6:03 PM EST
Astronomical Twilight 5:05 AM EST 6:33 PM EST
Moon 9:42 PM EST (11/4) 11:15 AM EST (11/4)
Length of Visible Light 11h 25m
Length of Day
10h 30m
Waning Gibbous, 72% of the Moon is Illuminated
Nov 4
Waning Gibbous
Nov 6
Last Quarter
Nov 13
New
Nov 20
First Quarter
Nov 28
Full

Hourly Weather History & Observations

Time (EST) Temp. Windchill Dew Point Humidity Pressure Visibility Wind Dir Wind Speed Gust Speed Precip Events Conditions
12:55 AM 46.2 °F 44.1 °F 33.4 °F 61% 30.10 in 10.0 mi Variable 4.6 mph - N/A   Overcast
1:55 AM 46.6 °F - 33.4 °F 60% 30.09 in 10.0 mi NNW 6.9 mph - N/A   Overcast
1:55 AM 46.0 °F 42.5 °F 32.0 °F 58% 30.08 in 10.0 mi North 6.9 mph - N/A   Overcast
2:55 AM 45.9 °F 44.6 °F 31.8 °F 58% 30.07 in 10.0 mi North 3.5 mph - N/A   Overcast
3:55 AM 46.0 °F - 32.9 °F 60% 30.08 in 10.0 mi Calm Calm - N/A   Overcast
4:55 AM 45.9 °F 43.6 °F 32.5 °F 60% 30.08 in 10.0 mi North 4.6 mph - N/A   Overcast
5:02 AM 46.4 °F 44.3 °F 32.0 °F 57% 30.08 in 10.0 mi North 4.6 mph - N/A   Light Drizzle
5:12 AM 46.4 °F 45.2 °F 32.0 °F 57% 30.09 in 10.0 mi NNW 3.5 mph - N/A   Overcast
5:14 AM 46.4 °F 45.2 °F 33.8 °F 62% 30.09 in 10.0 mi NNW 3.5 mph - N/A   Light Drizzle
5:34 AM 44.6 °F 43.1 °F 33.8 °F 66% 30.08 in 10.0 mi NNE 3.5 mph - N/A   Overcast
5:45 AM 44.6 °F - 33.8 °F 66% 30.08 in 10.0 mi Calm Calm - N/A Rain Light Rain
5:55 AM 45.1 °F - 33.8 °F 65% 30.09 in 10.0 mi Calm Calm - 0.00 in   Light Drizzle
6:06 AM 44.6 °F 43.1 °F 33.8 °F 66% 30.09 in 10.0 mi North 3.5 mph - N/A   Overcast
6:55 AM 45.0 °F - 34.2 °F 66% 30.10 in 10.0 mi Calm Calm - 0.00 in   Overcast
7:55 AM 45.9 °F 44.6 °F 34.5 °F 65% 30.11 in 10.0 mi North 3.5 mph - N/A   Overcast
8:55 AM 46.2 °F 43.3 °F 35.8 °F 67% 30.09 in 10.0 mi NNE 5.8 mph - N/A   Overcast
9:55 AM 48.0 °F - 32.2 °F 54% 30.09 in 10.0 mi NE 5.8 mph - N/A   Mostly Cloudy
10:55 AM 48.0 °F - 33.8 °F 58% 30.08 in 10.0 mi Variable 4.6 mph - N/A   Mostly Cloudy
11:55 AM 48.9 °F - 33.1 °F 54% 30.05 in 10.0 mi NNE 6.9 mph - N/A   Overcast
12:55 PM 49.3 °F - 34.7 °F 57% 30.03 in 10.0 mi WNW 4.6 mph - N/A   Overcast
1:55 PM 49.8 °F - 34.5 °F 56% 30.01 in 10.0 mi Calm Calm - N/A   Overcast
2:55 PM 50.0 °F - 35.1 °F 57% 30.01 in 10.0 mi NW 4.6 mph - N/A   Overcast
3:55 PM 50.2 °F - 34.9 °F 56% 30.00 in 10.0 mi Calm Calm - N/A   Clear
4:55 PM 46.9 °F - 39.0 °F 74% 30.01 in 10.0 mi Calm Calm - N/A   Mostly Cloudy
5:55 PM 43.0 °F - 39.0 °F 86% 30.01 in 10.0 mi Calm Calm - N/A   Clear
6:55 PM 41.9 °F - 38.5 °F 88% 30.03 in 10.0 mi Calm Calm - N/A   Clear
7:55 PM 41.0 °F - 38.7 °F 91% 30.02 in 10.0 mi Calm Calm - N/A   Scattered Clouds
8:55 PM 39.4 °F - 37.4 °F 93% 30.04 in 10.0 mi Calm Calm - N/A   Partly Cloudy
9:55 PM 39.2 °F - 36.5 °F 90% 30.03 in 10.0 mi Calm Calm - N/A   Clear
10:55 PM 38.5 °F - 36.3 °F 92% 30.02 in 10.0 mi Calm Calm - N/A   Clear